Location: La Bastide
(43.1661°N, 1.2755°E)
Time: 14:34:59
(UTC+00:00)

ISS - Visible Passes

Search period start: 15 February 2026 00:00
Search period end: 25 February 2026 00:00
Orbit: 413 x 428 km, 51.6° (Epoch: 14 February)

Date Brightness Start Highest point End Pass type
(mag) Time Alt. Az. Time Alt. Az. Time Alt. Az.
15 Feb -1.6 04:36:22 24° SE 04:36:22 24° SE 04:38:45 10° E visible
15 Feb -3.4 06:09:23 10° WSW 06:12:38 48° NNW 06:15:54 10° NE visible
16 Feb -3.9 05:24:33 42° WSW 05:25:31 73° NNW 05:28:51 10° NE visible
17 Feb -2.3 04:39:35 37° ENE 04:39:35 37° ENE 04:41:46 10° ENE visible
17 Feb -2.4 06:12:36 10° WNW 06:15:30 26° NNW 06:18:24 10° NE visible
18 Feb -0.2 03:54:30 10° ENE 03:54:30 10° ENE 03:54:33 10° ENE visible
18 Feb -2.8 05:27:30 30° NW 05:28:15 34° NNW 05:31:21 10° NE visible
19 Feb -2.1 04:42:19 30° NNE 04:42:19 30° NNE 04:44:17 10° NE visible
19 Feb -1.9 06:15:54 10° WNW 06:18:27 20° N 06:21:00 10° NE visible
20 Feb -0.3 03:57:04 11° NE 03:57:04 11° NE 03:57:12 10° NE visible
20 Feb -2.1 05:30:03 19° NW 05:31:07 22° NNW 05:33:49 10° NE visible
21 Feb -1.8 04:44:44 23° NNE 04:44:44 23° NNE 04:46:40 10° NE visible
22 Feb -0.4 03:59:22 11° NE 03:59:22 11° NE 03:59:34 10° NE visible
22 Feb -1.7 05:32:21 14° NW 05:34:01 19° N 05:36:29 10° NE visible
23 Feb -1.7 04:46:57 19° N 04:46:57 19° N 04:49:09 10° NE visible
24 Feb -0.5 04:01:33 12° NE 04:01:33 12° NE 04:01:54 10° NE visible
24 Feb -1.7 05:34:31 11° NW 05:36:51 20° N 05:39:27 10° ENE visible
